Location: Star Hoppers Observatory
(42.7905°N, 83.6127°W)
Time: 03:12:59
(UTC-04:00)

Amateur Radio Satellites - All Passes

Search period start: 25 May 2016 02:42
Search period end: 26 May 2016 02:42
Location: Star Hoppers Observatory, 42.7905°N, 83.6127°W

Satellite Date Start Highest point End Downlink Frequencies (MHz)
Time Altitude Azimuth
BUGSAT 1 25 May 02:46:54 02:49:54 20° 294° (WNW) 02:52:51 437.445
TISAT 1 25 May 02:56:41 02:59:40 18° 267° (W) 03:02:38 437.305
YUBILEINY 25 May 02:57:09 03:03:34 22° 62° (ENE) 03:09:57 435.215
DANDE 25 May 03:06:38 03:08:52 11° 286° (WNW) 03:11:07 436.750
STARS 25 May 03:32:45 03:34:51 13° 61° (ENE) 03:36:55 437.465
Gurwin Techsat 1B 25 May 03:42:36 03:47:56 71° 102° (ESE) 03:53:14 435.225
Oscar 19 25 May 03:44:56 03:49:53 48° 290° (WNW) 03:54:48 437.125/150
SWISSCUBE 25 May 03:45:07 03:49:18 31° 264° (W) 03:53:32 437.505
ITUPSAT 1 25 May 03:49:32 03:53:45 31° 263° (W) 03:58:01 437.325
SO-50 25 May 03:51:54 03:55:38 21° 320° (NW) 03:59:22 436.795
AO-7 25 May 03:52:34 03:57:53 18° 90° (E) 04:03:10 29.400- 29.500
Cosmos 2491 25 May 03:53:31 03:59:45 22° 78° (ENE) 04:05:58 435.465 / 435.565
Cosmos 2504 25 May 04:00:30 04:04:58 15° 59° (ENE) 04:09:34 435.465 / 435.565
ISS 25 May 04:05:47 04:08:30 23° 16° (NNE) 04:11:12 145.825
MOZHAYETS 4 25 May 04:15:33 04:19:54 47° 72° (ENE) 04:24:17
PHONESAT 2.4 25 May 04:15:58 04:18:52 34° 196° (SSW) 04:21:43 2401.200-2431.200
BEESAT 25 May 04:16:30 04:19:39 18° 268° (W) 04:22:49 436.000
JAS-2 25 May 04:16:31 04:22:21 25° 303° (WNW) 04:27:50 435.910
ITAMSAT 1 25 May 04:19:28 04:24:39 61° 102° (ESE) 04:29:48 435.822/435.867
KKS-1 25 May 04:22:10 04:26:39 79° 76° (ENE) 04:31:09 437.445
RS-15 25 May 04:30:53 04:43:00 67° 245° (WSW) 04:55:03 29.354- 29.394
YUBILEINY 25 May 04:52:44 05:01:32 85° 263° (W) 05:10:19 435.215
STARS 25 May 05:06:15 05:10:39 68° 257° (WSW) 05:15:04 437.465
Gurwin Techsat 1B 25 May 05:23:58 05:27:17 17° 300° (WNW) 05:30:38 435.225
CUBESAT XI-V 25 May 05:32:46 05:37:00 36° 70° (ENE) 05:41:17 437.345
HORYU 2 25 May 05:39:40 05:43:18 25° 95° (E) 05:46:56 437.375
ISS 25 May 05:41:59 05:45:15 82° 215° (SW) 05:48:30 145.825
AO-7 25 May 05:43:19 05:51:44 87° 109° (ESE) 06:00:08 29.400- 29.500
Cosmos 2491 25 May 05:46:39 05:55:30 81° 278° (W) 06:04:24 435.465 / 435.565
Cosmos 2504 25 May 05:51:33 05:59:52 71° 80° (E) 06:08:39 435.465 / 435.565
MOZHAYETS 4 25 May 05:54:16 05:57:19 18° 268° (W) 06:00:23
PHONESAT 2.4 25 May 05:54:41 05:55:02 10° 212° (SSW) 05:55:24 2401.200-2431.200
ITAMSAT 1 25 May 06:00:03 06:03:38 19° 299° (WNW) 06:07:13 435.822/435.867
BRITE-PL 25 May 06:24:02 06:25:16 11° 85° (E) 06:26:29 437.365/2234.400
Cubesat XI-IV 25 May 06:28:32 06:29:29 10° 87° (E) 06:30:26 437.490
NOAA 15 25 May 06:32:15 06:35:48 18° 91° (E) 06:39:19 137.62
LilacSat-2 25 May 06:46:34 06:47:33 11° 90° (E) 06:48:32 437.200
RS-15 25 May 06:47:03 06:52:58 15° 266° (W) 06:58:54 29.354- 29.394
YUBILEINY 25 May 06:51:51 06:56:56 17° 284° (WNW) 07:02:02 435.215
GOMX 1 25 May 07:03:30 07:04:55 11° 86° (E) 07:06:19 467.674
CUBESAT XI-V 25 May 07:10:39 07:14:27 24° 266° (W) 07:18:17 437.345
CUTE-I 25 May 07:12:42 07:17:20 29° 95° (E) 07:21:57 437.470
HORYU 2 25 May 07:15:57 07:19:53 32° 292° (WNW) 07:23:49 437.375
STRAND 1 25 May 07:17:28 07:22:08 38° 68° (ENE) 07:26:50 437.568
AO-85 25 May 07:34:55 07:40:18 62° 119° (ESE) 07:45:36 145.980
AO-7 25 May 07:37:18 07:43:32 24° 309° (NW) 07:49:46 29.400- 29.500
NOAA 18 25 May 07:39:43 07:45:08 60° 102° (ESE) 07:50:33 137.9125
Cosmos 2504 25 May 07:46:05 07:52:33 26° 278° (W) 07:59:17 435.465 / 435.565
Cosmos 2491 25 May 07:48:21 07:53:54 18° 301° (WNW) 07:59:29 435.465 / 435.565
BRITE-PL 25 May 07:59:18 08:04:36 87° 283° (WNW) 08:09:26 437.365/2234.400
Cubesat XI-IV 25 May 08:04:55 08:10:18 85° 104° (ESE) 08:15:41 437.490
DOVE 4 25 May 08:05:09 08:08:38 22° 93° (E) 08:11:58 437.250
NOAA 15 25 May 08:10:44 08:15:59 60° 288° (WNW) 08:21:10 137.62
HO-68 25 May 08:16:17 08:20:19 16° 88° (E) 08:24:21 435.675
LilacSat-2 25 May 08:18:30 08:22:11 53° 286° (WNW) 08:25:51 437.200
PRISM 25 May 08:28:29 08:32:11 32° 69° (ENE) 08:35:55 437.425
CUTE 1.7 + AOD 2 25 May 08:35:44 08:37:49 13° 90° (E) 08:39:53 437.475
GOMX 1 25 May 08:38:52 08:43:42 74° 286° (WNW) 08:48:09 467.674
Cosmos 2499 25 May 08:43:46 08:48:03 14° 58° (ENE) 08:52:24 435.465 / 435.565
GONETS M04 25 May 08:46:35 08:53:27 25° 64° (ENE) 09:00:16
CUTE-I 25 May 08:52:31 08:57:26 38° 292° (WNW) 09:02:20 437.470
CINEMA 3 25 May 08:56:32 08:59:51 22° 94° (E) 09:03:08 145.822/145.860
STRAND 1 25 May 08:57:07 09:01:23 27° 265° (W) 09:05:41 437.568
AIST 1 25 May 08:59:38 09:03:37 33° 75° (ENE) 09:07:32
SO-50 25 May 09:01:32 09:04:10 14° 34° (NE) 09:06:44 436.795
AUBIESAT-1 25 May 09:07:07 09:09:44 21° 101° (E) 09:12:20 437.475
COMPASS 1 25 May 09:07:29 09:10:00 15° 91° (E) 09:12:30 437.405
M-CUBED/EXP-1 PRIME 25 May 09:11:02 09:13:59 29° 103° (ESE) 09:16:53 437.505
AAUSAT CUBESAT 2 25 May 09:13:04 09:15:19 14° 91° (E) 09:17:33 437.432
AO-85 25 May 09:16:40 09:21:12 26° 317° (NW) 09:25:37 145.980
NOAA 18 25 May 09:21:24 09:25:20 21° 299° (WNW) 09:29:16 137.9125
BRITE-PL 25 May 09:40:04 09:42:07 12° 303° (WNW) 09:44:08 437.365/2234.400
CANX-2 25 May 09:41:53 09:46:11 82° 103° (ESE) 09:50:28 2200.000
DOVE 4 25 May 09:42:25 09:46:27 33° 291° (WNW) 09:50:17 437.250
Cubesat XI-IV 25 May 09:46:51 09:49:39 15° 302° (WNW) 09:52:28 437.490
SEEDS 25 May 09:50:17 09:54:32 64° 101° (E) 09:58:45 437.485
HO-68 25 May 10:01:45 10:08:58 87° 106° (ESE) 10:16:10 435.675
Oscar 11 25 May 10:03:04 10:06:22 21° 93° (E) 10:09:38 145.826/435.025
PRISM 25 May 10:04:20 10:07:33 22° 266° (W) 10:10:47 437.425
CUBEBUG 2 25 May 10:04:26 10:08:20 39° 98° (E) 10:12:16 437.445
CUTE 1.7 + AOD 2 25 May 10:09:48 10:14:00 56° 286° (WNW) 10:18:10 437.475
ZACube-1 25 May 10:11:41 10:14:57 22° 94° (E) 10:18:15 437.345
UNISAT 6 25 May 10:13:41 10:17:12 24° 67° (ENE) 10:20:41 437.425
TIGRISAT 25 May 10:21:59 10:25:41 27° 68° (ENE) 10:29:20 435.000
CINEMA 3 25 May 10:33:23 10:37:03 30° 291° (WNW) 10:40:40 145.822/145.860
Cosmos 2499 25 May 10:34:23 10:42:52 67° 79° (E) 10:51:41 435.465 / 435.565
AIST 1 25 May 10:37:43 10:40:59 21° 273° (W) 10:44:13
UWE-3 25 May 10:38:45 10:42:53 67° 101° (E) 10:47:05 435.000/436.395/437.385
SO-50 25 May 10:40:46 10:45:31 75° 56° (NE) 10:50:03 436.795
AUBIESAT-1 25 May 10:41:39 10:44:13 20° 297° (WNW) 10:46:43 437.475
COMPASS 1 25 May 10:41:46 10:45:49 47° 287° (WNW) 10:49:51 437.405
GONETS M04 25 May 10:42:30 10:51:11 75° 266° (W) 10:59:49
HUMSAT D 25 May 10:45:12 10:46:56 12° 90° (E) 10:48:42 437.325/437.525
M-CUBED/EXP-1 PRIME 25 May 10:46:22 10:48:21 15° 300° (WNW) 10:50:19 437.505
AAUSAT CUBESAT 2 25 May 10:47:01 10:51:06 51° 287° (WNW) 10:55:10 437.432
PCSat 25 May 10:50:36 10:55:41 43° 113° (ESE) 11:00:48 145.827
FUNcube-1 25 May 10:50:41 10:54:48 56° 100° (E) 10:58:57 145.935
ANTELSAT 25 May 10:54:02 10:58:22 63° 74° (ENE) 11:02:39 437.575/2403.000
NANOSAT C BR1 25 May 10:54:23 10:56:00 12° 61° (ENE) 10:57:38 145.865
O/OREOS (USA 219) 25 May 11:05:51 11:10:25 83° 113° (ESE) 11:15:00 437.305
CANX-2 25 May 11:20:40 11:21:23 10° 299° (WNW) 11:22:07 2200.000
SEEDS 25 May 11:27:49 11:29:42 13° 298° (WNW) 11:31:36 437.485
DUCHIFAT 1 25 May 11:32:01 11:35:36 28° 68° (ENE) 11:39:11 145.980
CUSAT 1 25 May 11:36:38 11:40:31 17° 77° (ENE) 11:44:51 437.405
Oscar 11 25 May 11:38:37 11:42:35 36° 290° (WNW) 11:46:34 145.826/435.025
DELFI C3 25 May 11:39:33 11:43:34 68° 284° (WNW) 11:47:34 145.870
CUBEBUG 2 25 May 11:41:51 11:44:43 18° 294° (WNW) 11:47:35 437.445
ZACube-1 25 May 11:47:35 11:51:18 32° 290° (WNW) 11:55:02 437.345
UNISAT 6 25 May 11:49:50 11:53:47 32° 263° (W) 11:57:41 437.425
HO-68 25 May 11:50:52 11:55:48 20° 306° (NW) 12:00:44 435.675
TIGRISAT 25 May 11:58:33 12:02:19 28° 264° (W) 12:06:02 435.000
BUGSAT 1 25 May 12:01:27 12:05:02 28° 68° (ENE) 12:08:38 437.445
POPSAT HIP 1 25 May 12:06:16 12:10:30 72° 75° (ENE) 12:14:44 437.405
QB50P1 25 May 12:06:56 12:11:10 75° 75° (ENE) 12:15:25 145.935-145.965
QB50P2 25 May 12:08:16 12:12:30 81° 76° (ENE) 12:16:46 145.880/145.840
POLYITAN 1 25 May 12:10:42 12:14:57 83° 75° (ENE) 12:19:12 437.675
UWE-3 25 May 12:17:20 12:18:50 12° 298° (WNW) 12:20:21 435.000/436.395/437.385
HUMSAT D 25 May 12:18:51 12:22:55 56° 287° (WNW) 12:27:01 437.325/437.525
SO-50 25 May 12:23:12 12:25:18 13° 253° (WSW) 12:27:24 436.795
AISAT 25 May 12:25:39 12:29:02 21° 94° (E) 12:32:24 437.250
NANOSAT C BR1 25 May 12:26:58 12:31:11 69° 258° (WSW) 12:35:25 145.865
Cosmos 2499 25 May 12:28:27 12:35:21 28° 277° (W) 12:42:27 435.465 / 435.565
FUNcube-1 25 May 12:28:30 12:30:37 14° 297° (WNW) 12:32:44 145.935
ANTELSAT 25 May 12:33:48 12:35:29 12° 270° (W) 12:37:09 437.575/2403.000
PCSat 25 May 12:34:24 12:39:12 31° 311° (NW) 12:44:02 145.827
BEESAT 3 25 May 12:35:03 12:38:30 29° 115° (ESE) 12:41:57 437.485
JAS-2 25 May 12:42:05 12:48:47 40° 64° (ENE) 12:55:56 435.910
GONETS M04 25 May 12:42:23 12:46:22 14° 286° (WNW) 12:50:21
DANDE 25 May 12:47:09 12:51:33 26° 82° (E) 12:56:55 436.750
UKube-1 25 May 12:48:02 12:51:32 23° 95° (E) 12:55:00 .
O/OREOS (USA 219) 25 May 12:48:22 12:50:28 13° 311° (NW) 12:52:33 437.305
ESTCUBE 1 25 May 12:52:12 12:56:43 59° 101° (E) 13:01:11 437.505/2401.250
50 SAT 25 May 12:58:08 13:01:47 52° 100° (E) 13:05:25 437.505
DUCHIFAT 1 25 May 13:07:42 13:11:15 26° 265° (W) 13:14:50 145.980
CUSAT 1 25 May 13:15:13 13:21:18 86° 281° (W) 13:28:55 437.405
Oscar 19 25 May 13:23:42 13:28:22 35° 67° (ENE) 13:33:03 437.125/150
VELOX 1 25 May 13:25:29 13:29:57 88° 106° (ESE) 13:34:22 145.980
CUBEBUG 1 25 May 13:25:33 13:29:58 88° 283° (WNW) 13:34:19 437.445
Gurwin Techsat 1B 25 May 13:27:07 13:30:29 17° 60° (ENE) 13:33:51 435.225
DX 1 25 May 13:29:12 13:33:35 82° 102° (ESE) 13:37:55 434.975-435.025
BEESAT 2 25 May 13:32:05 13:36:03 72° 120° (ESE) 13:40:02 435.950
BUGSAT 1 25 May 13:36:50 13:40:22 26° 264° (W) 13:43:54 437.445
POPSAT HIP 1 25 May 13:46:32 13:46:45 10° 271° (W) 13:46:59 437.405
AISAT 25 May 14:01:33 14:05:38 37° 290° (WNW) 14:09:40 437.250
ITAMSAT 1 25 May 14:01:59 14:04:39 14° 58° (ENE) 14:07:18 435.822/435.867
Cosmos 2491 25 May 14:03:45 14:05:33 11° 51° (NE) 14:07:20 435.465 / 435.565
SPROUT 25 May 14:04:30 14:08:46 84° 284° (WNW) 14:13:01 437.525
BEESAT 3 25 May 14:12:46 14:16:10 27° 313° (NW) 14:19:36 437.485
UKube-1 25 May 14:23:45 14:27:36 32° 291° (WNW) 14:31:26 .
JAS-2 25 May 14:26:44 14:33:36 46° 264° (W) 14:41:04 435.910
AO-85 25 May 14:27:43 14:29:52 13° 31° (NNE) 14:31:56 145.980
DANDE 25 May 14:28:45 14:33:50 47° 289° (WNW) 14:40:31 436.750
ESTCUBE 1 25 May 14:30:20 14:33:02 16° 298° (WNW) 14:35:44 437.505/2401.250
50 SAT 25 May 14:33:37 14:35:04 12° 297° (WNW) 14:36:31 437.505
TISAT 1 25 May 14:38:14 14:42:24 63° 102° (ESE) 14:46:30 437.305
BEESAT 25 May 14:38:16 14:40:09 12° 89° (E) 14:42:02 436.000
AO-7 25 May 14:52:15 14:59:07 30° 55° (NE) 15:06:02 29.400- 29.500
CUSAT 1 25 May 15:00:29 15:04:49 18° 303° (WNW) 15:09:40 437.405
Oscar 19 25 May 15:03:07 15:07:41 31° 264° (W) 15:12:16 437.125/150
Gurwin Techsat 1B 25 May 15:04:34 15:09:51 70° 258° (WSW) 15:15:10 435.225
VELOX 1 25 May 15:04:59 15:05:42 10° 301° (WNW) 15:06:24 145.980
DX 1 25 May 15:07:58 15:09:07 11° 301° (WNW) 15:10:15 434.975-435.025
BEESAT 2 25 May 15:11:58 15:14:21 15° 320° (NW) 15:16:44 435.950
AIST 2 25 May 15:20:25 15:24:29 64° 121° (ESE) 15:28:36 435.215
ITAMSAT 1 25 May 15:38:14 15:43:25 83° 256° (WSW) 15:48:38 435.822/435.867
SWISSCUBE 25 May 15:43:38 15:48:24 62° 102° (ESE) 15:53:09 437.505
ITUPSAT 1 25 May 15:48:24 15:53:10 61° 102° (ESE) 15:57:55 437.325
Cosmos 2491 25 May 15:56:15 16:04:50 54° 76° (ENE) 16:13:17 435.465 / 435.565
YUBILEINY 25 May 16:00:44 16:07:01 23° 79° (E) 16:13:18 435.215
AO-85 25 May 16:06:44 16:11:26 61° 53° (NE) 16:15:42 145.980
MOZHAYETS 4 25 May 16:12:33 16:13:19 10° 88° (E) 16:14:06
BEESAT 25 May 16:13:40 16:18:28 74° 286° (WNW) 16:23:14 436.000
KKS-1 25 May 16:13:54 16:16:14 14° 91° (E) 16:18:34 437.445
TISAT 1 25 May 16:15:42 16:17:31 13° 298° (WNW) 16:19:21 437.305
HORYU 2 25 May 16:38:31 16:42:11 26° 67° (ENE) 16:45:51 437.375
AO-7 25 May 16:43:03 16:51:17 68° 255° (WSW) 16:59:36 29.400- 29.500
RS-15 25 May 16:47:45 16:54:48 19° 97° (E) 17:02:00 29.354- 29.394
STARS 25 May 16:55:37 16:58:51 20° 94° (E) 17:02:03 437.465
AIST 2 25 May 17:00:37 17:03:23 17° 319° (NW) 17:06:10 435.215
SWISSCUBE 25 May 17:22:45 17:25:42 16° 299° (WNW) 17:28:38 437.505
ITUPSAT 1 25 May 17:27:32 17:30:31 17° 298° (WNW) 17:33:30 437.325
NOAA 18 25 May 17:28:44 17:32:22 19° 60° (ENE) 17:36:01 137.9125
BRITE-PL 25 May 17:33:34 17:37:14 18° 61° (ENE) 17:40:55 437.365/2234.400
MOZHAYETS 4 25 May 17:46:24 17:51:03 80° 283° (WNW) 17:55:40
AO-85 25 May 17:48:43 17:51:16 15° 253° (WSW) 17:53:42 145.980
KKS-1 25 May 17:48:49 17:53:10 56° 287° (WNW) 17:57:29 437.445
Cubesat XI-IV 25 May 17:49:39 17:53:33 21° 62° (ENE) 17:57:27 437.490
NOAA 15 25 May 17:52:39 17:57:18 32° 66° (ENE) 18:01:58 137.62
Cosmos 2491 25 May 17:53:42 18:01:15 34° 276° (W) 18:08:46 435.465 / 435.565
YUBILEINY 25 May 17:54:09 18:02:50 77° 279° (W) 18:11:35 435.215
GOMX 1 25 May 18:10:35 18:14:15 19° 62° (ENE) 18:17:52 467.674
HORYU 2 25 May 18:14:43 18:18:38 31° 263° (W) 18:22:34 437.375
STARS 25 May 18:31:17 18:35:20 38° 290° (WNW) 18:39:22 437.465
Cosmos 2504 25 May 18:31:25 18:38:22 55° 91° (E) 18:45:40 435.465 / 435.565
CUTE-I 25 May 18:35:11 18:40:17 51° 71° (ENE) 18:45:27 437.470
AO-7 25 May 18:42:32 18:45:32 12° 274° (W) 18:48:33 29.400- 29.500
HO-68 25 May 18:47:31 18:51:14 15° 50° (NE) 18:54:58 435.675
RS-15 25 May 18:53:46 19:05:03 79° 119° (ESE) 19:17:02 29.354- 29.394
LilacSat-2 25 May 19:00:47 19:04:35 80° 79° (ENE) 19:08:24 437.200
CUBESAT XI-V 25 May 19:05:10 19:09:56 79° 102° (ESE) 19:14:38 437.345
NOAA 18 25 May 19:07:02 19:12:28 68° 257° (WSW) 19:17:56 137.9125
BRITE-PL 25 May 19:09:24 19:15:00 76° 258° (WSW) 19:20:45 437.365/2234.400
DOVE 4 25 May 19:10:19 19:14:50 30° 68° (ENE) 19:19:13 437.250
Cubesat XI-IV 25 May 19:28:00 19:33:13 55° 260° (W) 19:38:27 437.490
STRAND 1 25 May 19:29:13 19:30:57 12° 88° (E) 19:32:41 437.568
CUTE 1.7 + AOD 2 25 May 19:30:30 19:31:46 11° 61° (ENE) 19:33:02 437.475
NOAA 15 25 May 19:32:10 19:36:59 35° 263° (W) 19:41:51 137.62
O/OREOS (USA 219) 25 May 19:36:36 19:40:00 21° 55° (NE) 19:43:22 437.305
PCSat 25 May 19:37:26 19:42:36 42° 52° (NE) 19:47:43 145.827
GOMX 1 25 May 19:46:18 19:51:47 69° 260° (W) 19:57:12 467.674
AUBIESAT-1 25 May 19:53:10 19:57:03 40° 67° (ENE) 20:00:42 437.475
YUBILEINY 25 May 19:56:12 20:01:17 16° 302° (WNW) 20:06:23 435.215
M-CUBED/EXP-1 PRIME 25 May 19:57:29 20:01:40 55° 69° (ENE) 20:05:32 437.505
CINEMA 3 25 May 19:58:30 20:02:27 27° 68° (ENE) 20:06:17 145.822/145.860
COMPASS 1 25 May 20:00:13 20:01:53 12° 62° (ENE) 20:03:35 437.405
AAUSAT CUBESAT 2 25 May 20:05:33 20:06:45 11° 62° (ENE) 20:07:59 437.432
CUTE-I 25 May 20:16:42 20:20:38 21° 267° (W) 20:24:36 437.470
Cosmos 2504 25 May 20:26:07 20:32:11 28° 292° (WNW) 20:38:33 435.465 / 435.565
HO-68 25 May 20:30:39 20:37:43 71° 70° (ENE) 20:44:51 435.675
CANX-2 25 May 20:35:08 20:39:17 62° 75° (ENE) 20:43:28 2200.000
SEEDS 25 May 20:42:36 20:46:36 47° 73° (ENE) 20:50:38 437.485
CUBESAT XI-V 25 May 20:44:37 20:46:39 13° 300° (WNW) 20:48:41 437.345
DOVE 4 25 May 20:47:35 20:52:24 36° 264° (W) 20:57:06 437.250
BEESAT 3 25 May 20:51:24 20:54:45 25° 46° (NE) 20:58:04 437.485
BRITE-PL 25 May 20:53:27 20:54:20 10° 275° (W) 20:55:14 437.365/2234.400
Oscar 11 25 May 20:59:02 21:02:00 19° 65° (ENE) 21:04:59 145.826/435.025
CUTE 1.7 + AOD 2 25 May 21:02:49 21:07:00 73° 259° (W) 21:11:14 437.475
CUBEBUG 2 25 May 21:03:08 21:07:12 37° 71° (ENE) 21:11:10 437.445
STRAND 1 25 May 21:05:36 21:10:46 85° 285° (WNW) 21:15:55 437.568
RS-15 25 May 21:08:07 21:18:46 40° 326° (NW) 21:29:59 29.354- 29.394
ZACube-1 25 May 21:08:39 21:11:46 20° 66° (ENE) 21:14:50 437.345
O/OREOS (USA 219) 25 May 21:15:21 21:19:37 43° 253° (WSW) 21:23:50 437.305
PCSat 25 May 21:21:09 21:25:49 30° 251° (WSW) 21:30:28 145.827
AUBIESAT-1 25 May 21:28:47 21:31:38 18° 260° (W) 21:34:23 437.475
AIST 1 25 May 21:30:27 21:33:36 20° 87° (E) 21:36:46
COMPASS 1 25 May 21:32:49 21:36:55 64° 259° (W) 21:41:03 437.405
M-CUBED/EXP-1 PRIME 25 May 21:34:19 21:36:24 13° 262° (W) 21:38:27 437.505
CINEMA 3 25 May 21:35:08 21:39:28 33° 263° (W) 21:43:40 145.822/145.860
UWE-3 25 May 21:36:15 21:40:30 59° 74° (ENE) 21:44:41 435.000/436.395/437.385
AAUSAT CUBESAT 2 25 May 21:37:33 21:41:39 71° 257° (WSW) 21:45:49 437.432
HUMSAT D 25 May 21:39:08 21:39:36 10° 61° (ENE) 21:40:05 437.325/437.525
PRISM 25 May 21:43:59 21:48:02 46° 100° (E) 21:52:02 437.425
FUNcube-1 25 May 21:46:51 21:50:55 47° 73° (ENE) 21:54:57 145.935
BEESAT 2 25 May 21:49:28 21:53:24 54° 53° (NE) 21:57:18 435.950
GONETS M04 25 May 21:49:39 21:56:36 27° 81° (E) 22:03:31
CUSAT 1 25 May 22:08:53 22:13:53 18° 57° (ENE) 22:18:31 437.405
CANX-2 25 May 22:14:10 22:15:34 11° 271° (W) 22:16:58 2200.000
SEEDS 25 May 22:20:12 22:22:35 15° 269° (W) 22:24:58 437.485
HO-68 25 May 22:20:41 22:26:01 22° 268° (W) 22:31:24 435.675
ISS 25 May 22:22:42 22:25:04 19° 134° (SE) 22:27:28 145.825
DELFI C3 25 May 22:25:53 22:29:50 75° 75° (ENE) 22:33:49 145.870
BEESAT 3 25 May 22:28:55 22:32:28 32° 244° (WSW) 22:36:00 437.485
Oscar 11 25 May 22:33:45 22:37:50 42° 262° (W) 22:41:56 145.826/435.025
CUBEBUG 2 25 May 22:40:39 22:43:56 20° 267° (W) 22:47:09 437.445
ZACube-1 25 May 22:43:53 22:47:50 36° 262° (W) 22:51:44 437.345
ANTELSAT 25 May 22:46:50 22:48:24 12° 90° (E) 22:49:58 437.575/2403.000
STRAND 1 25 May 22:47:11 22:49:08 12° 303° (WNW) 22:51:06 437.568
AIST 1 25 May 23:06:51 23:10:56 37° 284° (WNW) 23:15:01
HUMSAT D 25 May 23:10:33 23:14:38 76° 257° (WSW) 23:18:43 437.325/437.525
Cosmos 2499 25 May 23:12:28 23:19:19 49° 89° (E) 23:26:38 435.465 / 435.565
UWE-3 25 May 23:15:28 23:17:18 12° 270° (W) 23:19:10 435.000/436.395/437.385
PRISM 25 May 23:20:18 23:22:58 17° 296° (WNW) 23:25:37 437.425
DANDE 25 May 23:23:18 23:30:44 33° 67° (ENE) 23:37:46 436.750
AISAT 25 May 23:23:51 23:27:19 22° 65° (ENE) 23:30:47 437.250
FUNcube-1 25 May 23:25:00 23:27:25 15° 269° (W) 23:29:50 145.935
RS-15 25 May 23:26:31 23:35:54 25° 360° (N) 23:45:32 29.354- 29.394
BEESAT 2 25 May 23:28:38 23:30:48 14° 250° (WSW) 23:32:57 435.950
50 SAT 25 May 23:37:26 23:40:31 26° 69° (ENE) 23:43:36 437.505
UNISAT 6 25 May 23:40:01 23:44:09 45° 99° (E) 23:48:19 437.425
AIST 2 25 May 23:41:01 23:45:06 53° 53° (NE) 23:49:09 435.215
UKube-1 25 May 23:43:27 23:46:52 23° 66° (ENE) 23:50:18 .
GONETS M04 25 May 23:43:55 23:52:39 67° 281° (W) 00:01:25
TIGRISAT 25 May 23:48:16 23:52:27 52° 100° (E) 23:56:42 435.000
CUSAT 1 25 May 23:49:30 23:57:30 79° 79° (E) 00:04:14 437.405
ESTCUBE 1 25 May 23:52:13 23:56:39 58° 73° (ENE) 00:01:07 437.505/2401.250
POPSAT HIP 1 25 May 23:52:58 23:53:52 11° 89° (E) 23:54:46 437.405
QB50P1 25 May 23:53:20 23:54:30 11° 89° (E) 23:55:40 145.935-145.965
QB50P2 25 May 23:54:23 23:56:05 12° 90° (E) 23:57:48 145.880/145.840
POLYITAN 1 25 May 23:56:45 23:58:32 12° 90° (E) 00:00:19 437.675
ISS 25 May 23:58:03 00:01:15 56° 330° (NNW) 00:04:29 145.825
PHONESAT 2.4 26 May 00:01:22 00:03:55 23° 157° (SSE) 00:06:29 2401.200-2431.200
NANOSAT C BR1 26 May 00:11:34 00:14:22 17° 92° (E) 00:17:10 145.865
ANTELSAT 26 May 00:21:16 00:25:31 63° 285° (WNW) 00:29:48 437.575/2403.000
CUBEBUG 1 26 May 00:21:47 00:26:14 84° 76° (ENE) 00:30:42 437.445
VELOX 1 26 May 00:23:09 00:27:36 86° 80° (E) 00:32:07 145.980
DX 1 26 May 00:25:05 00:29:27 78° 75° (ENE) 00:33:52 434.975-435.025
DUCHIFAT 1 26 May 00:50:16 00:54:16 43° 99° (E) 00:58:15 145.980
SO-50 26 May 00:56:27 01:00:05 21° 111° (ESE) 01:03:43 436.795
SPROUT 26 May 00:58:25 01:02:43 81° 76° (ENE) 01:07:02 437.525
AISAT 26 May 00:59:24 01:03:34 37° 262° (W) 01:07:45 437.250
DANDE 26 May 01:05:47 01:14:05 62° 267° (W) 01:21:45 436.750
Cosmos 2499 26 May 01:06:21 01:12:43 32° 291° (WNW) 01:19:29 435.465 / 435.565
50 SAT 26 May 01:11:32 01:14:15 20° 266° (W) 01:16:59 437.505
BUGSAT 1 26 May 01:17:13 01:21:03 39° 98° (E) 01:24:50 437.445
UNISAT 6 26 May 01:17:43 01:20:32 17° 295° (WNW) 01:23:23 437.425
UKube-1 26 May 01:18:48 01:22:44 34° 262° (W) 01:26:42 .
AIST 2 26 May 01:20:40 01:23:10 16° 250° (WSW) 01:25:39 435.215
POPSAT HIP 1 26 May 01:25:55 01:30:06 67° 286° (WNW) 01:34:15 437.405
TIGRISAT 26 May 01:26:16 01:28:46 15° 296° (WNW) 01:31:15 435.000
QB50P1 26 May 01:26:32 01:30:43 65° 286° (WNW) 01:34:51 145.935-145.965
QB50P2 26 May 01:28:08 01:32:17 59° 286° (WNW) 01:36:24 145.880/145.840
TISAT 1 26 May 01:30:21 01:34:27 51° 73° (ENE) 01:38:34 437.305
POLYITAN 1 26 May 01:30:35 01:34:43 57° 286° (WNW) 01:38:49 437.675
ESTCUBE 1 26 May 01:31:27 01:33:50 14° 270° (W) 01:36:14 437.505/2401.250
CUSAT 1 26 May 01:33:04 01:38:33 21° 280° (W) 01:43:29 437.405
ISS 26 May 01:35:46 01:38:13 19° 350° (N) 01:40:41 145.825
JAS-2 26 May 01:36:14 01:42:49 32° 92° (E) 01:48:48 435.910
PHONESAT 2.4 26 May 01:37:17 01:40:21 52° 174° (S) 01:43:25 2401.200-2431.200
Oscar 19 26 May 01:37:18 01:38:09 10° 87° (E) 01:39:00 437.125/150
RS-15 26 May 01:41:52 01:53:08 40° 34° (NE) 02:04:27 29.354- 29.394
BEESAT 26 May 01:45:08 01:48:07 17° 62° (ENE) 01:51:08 436.000
NANOSAT C BR1 26 May 01:46:21 01:50:18 40° 289° (WNW) 01:54:13 145.865
GONETS M04 26 May 01:47:08 01:51:25 14° 304° (NW) 01:55:42
YUBILEINY 26 May 02:10:14 02:12:46 11° 53° (NE) 02:15:20 435.215
DUCHIFAT 1 26 May 02:26:53 02:29:39 17° 295° (WNW) 02:32:23 145.980
